[[{"header":{"parameterUnit":"m.s-1","parameterCategory":1,"la1":30.2991,"la2":30.254,"lo1":-89.0895,"lo2":-89.0444,"dy":0.0017,"dx":0.0017,"nx":28,"ny":28,"refTime":"2024-06-23T03:00:00:Z","depth":0,"parameterNumber":2,"parameterNumberName":"U-component_of_WINDS"},"data":[0,0,0,0,0,0,0,0,0,0,0,0,0,0,0,0,0,0,0,0,0,0,0,0,0,0,0,0,0,0,0,0,0,0,0,0,0,0,0,0,0,0,0,0,0,0,0,0,0,0,0,0,0,0,0,0,0,0,0.7833,0.7833,0,0.7879,0.7879,0.788,0.7893,0.7892,0.7892,0.7892,0.7936,0.7938,0.7939,0,0,0,0,0,0,0,0,0,0,0,0,0,0.7752,0.7753,0.7833,0.7833,0.7834,0.7879,0.788,0.788,0.7893,0.7892,0.7892,0.7892,0.7936,0.7938,0.7939,0,0,0,0,0,0,0,0,0,0,0,0,0,0.7791,0.7754,0.7833,0.7846,0.7847,0.7879,0.788,0.788,0.7893,0.7892,0.7892,0.7892,0.7935,0.7937,0.7939,0.796,0,0,0.7946,0.7947,0,0,0,0,0,0,0,0,0.7789,0.7794,0.7843,0.7845,0.7847,0.788,0.7867,0.7907,0.7893,0.7875,0.7892,0.7891,0.7918,0.7921,0.7931,0.7962,0.7964,0.7946,0.7947,0.7948,0.7949,0,0,0,0,0,0,0,0.7786,0.7792,0.7851,0.7844,0.7846,0.7848,0.7853,0.7875,0.7898,0.7877,0.7878,0.7883,0.7918,0.7928,0.7932,0.7965,0.7946,0.7948,0.7949,0.795,0.8014,0.8015,0,0,0,0,0,0,0.7782,0.779,0.785,0.7852,0.7817,0.785,0.7856,0.787,0.7898,0.7902,0.7884,0.7884,0.7925,0.7929,0.7933,0.7959,0.7948,0.795,0.7952,0.8014,0.8015,0.8015,0,0,0,0,0,0,0.778,0.7787,0.7848,0.7822,0.7829,0.7852,0.7867,0.7871,0.7881,0.7903,0.7907,0.789,0.7925,0.793,0.7953,0.796,0.7951,0.7953,0.8014,0.8014,0.8015,0.801,0,0,0,0,0,0,0.7778,0.7786,0.7796,0.7822,0.7831,0.7868,0.7868,0.7872,0.7885,0.7885,0.791,0.7914,0.7925,0.795,0.7955,0.7963,0.7955,0.8013,0.8014,0.8015,0.801,0.8011,0.8011,0,0,0,0,0,0.7775,0.7792,0.7796,0.7803,0.7843,0.7868,0.7874,0.7887,0.7885,0.7894,0.7908,0.7913,0.7959,0.7952,0.7958,0.7967,0.8013,0.8014,0.8015,0.8009,0.801,0.8011,0,0,0,0,0,0,0.7765,0.7796,0.78,0.7827,0.7845,0.7871,0.7882,0.7888,0.7906,0.7906,0.7921,0.7927,0.7948,0.796,0.7952,0.7988,0.7986,0.7988,0.798,0.7981,0.7981,0.7978,0.7957,0,0,0,0,0,0.7766,0.7786,0.7811,0.7832,0.7841,0.786,0.7871,0.788,0.7899,0.7907,0.7923,0.794,0.7959,0.797,0.7988,0.8011,0.8016,0.802,0.8021,0.8021,0.8023,0.8035,0.8037,0.8018,0.8018,0.8018,0,0,0.7769,0.7788,0.7799,0.783,0.7845,0.7864,0.7866,0.7886,0.7899,0.791,0.7932,0.7944,0.7965,0.7988,0.7999,0.7998,0.8029,0.8023,0.8023,0.8024,0.8036,0.8038,0.8039,0.8019,0.8019,0.8019,0,0,0.7782,0.7799,0.7818,0.7833,0.7856,0.7868,0.7873,0.7897,0.7906,0.7929,0.7937,0.7953,0.7984,0.7998,0.8009,0.8027,0.8031,0.8032,0.8036,0.8047,0.8049,0.805,0.8055,0.8057,0.8034,0.8034,0.8034,0,0.7781,0.7811,0.7826,0.7846,0.7858,0.7869,0.7887,0.7901,0.7928,0.7937,0.7936,0.7975,0.7989,0.8015,0.8019,0.8028,0.8033,0.8029,0.8047,0.8049,0.805,0.8056,0.8058,0.8034,0.8034,0.8034,0.8034,0,0.7809,0.7829,0.7841,0.7868,0.7882,0.7901,0.7917,0.793,0.7937,0.7949,0.7972,0.799,0.8011,0.8018,0.8025,0.8044,0.8043,0.8045,0.8043,0.8052,0.8057,0.8059,0.8033,0.8033,0.8034,0.8034,0,0,0.7818,0.7853,0.7857,0.7869,0.7895,0.791,0.7928,0.795,0.796,0.7978,0.7993,0.8019,0.802,0.8033,0.8042,0.8052,0.8063,0.8052,0.8052,0.8053,0.8084,0.8082,0.8085,0.8066,0.8067,0.8067,0.8082,0,0.7834,0.7868,0.7882,0.791,0.7928,0.7938,0.7953,0.797,0.7982,0.7997,0.801,0.8028,0.8029,0.8036,0.8046,0.8059,0.8069,0.8059,0.8079,0.808,0.8074,0.8087,0.8086,0.8099,0.8084,0.8085,0.8085,0,0.7857,0.7877,0.7906,0.7929,0.7937,0.7951,0.7972,0.7987,0.8006,0.8013,0.8027,0.8035,0.8053,0.805,0.8075,0.8067,0.8076,0.8084,0.8084,0.8087,0.8083,0.8089,0.8104,0.8106,0.8088,0.8088,0.8088,0,0.786,0.7893,0.7915,0.7925,0.7952,0.7962,0.7973,0.7992,0.8004,0.8021,0.8029,0.8048,0.8058,0.8072,0.8084,0.8081,0.8107,0.8105,0.8113,0.8113,0.8118,0.8117,0.8134,0.8124,0.8124,0.8124,0.8124,0,0.7876,0.7894,0.7916,0.793,0.7949,0.7964,0.7982,0.7994,0.801,0.8025,0.8035,0.8048,0.8064,0.8079,0.8088,0.8107,0.8111,0.8117,0.8119,0.8116,0.8115,0.8122,0.8121,0.8125,0.8125,0.8125,0.8125,0,0.7883,0.7899,0.7923,0.7947,0.7953,0.7966,0.7986,0.7999,0.801,0.8029,0.8034,0.8052,0.807,0.8084,0.8107,0.8114,0.8133,0.8135,0.8127,0.8128,0.8134,0.8133,0.8155,0.8159,0.8148,0.8148,0.8148,0,0.7892,0.7906,0.7931,0.7942,0.7954,0.7972,0.7984,0.7999,0.8011,0.8033,0.8042,0.8061,0.8077,0.8105,0.812,0.8137,0.814,0.8146,0.8143,0.8139,0.8139,0.8138,0.8139,0.8147,0.8147,0.8147,0.8147,0,0.7906,0.7913,0.7931,0.7952,0.7966,0.7983,0.7999,0.8007,0.8025,0.8038,0.8057,0.8069,0.8093,0.8111,0.813,0.8141,0.8146,0.8148,0.8151,0.8147,0.8141,0.8144,0.8128,0.8147,0.8147,0.8147,0.8147,0.8147,0.7914,0.7926,0.7946,0.7965,0.7979,0.7995,0.8007,0.8021,0.8037,0.8058,0.8066,0.8085,0.8102,0.8128,0.8139,0.8153,0.8153,0.8157,0.8158,0.8159,0.8158,0.8139,0.8157,0.8157,0.8157,0.8157,0.8157,0,0.7928,0.7941,0.7959,0.7982,0.7997,0.8002,0.802,0.8032,0.8049,0.8065,0.8081,0.8102,0.8119,0.8135,0.8153,0.8161,0.8164,0.8165,0.8165,0.8167,0.8158,0.8153,0.8163,0.8163,0.8163,0.8163,0.8163,0.8163,0.7937,0.7958,0.7968,0.7995,0.8008,0.8028,0.8038,0.8051,0.8064,0.8087,0.8102,0.8113,0.8128,0.8147,0.8163,0.8167,0.8173,0.8173,0.8178,0.8168,0.8168,0.8167,0.8163,0.8174,0.8174,0.8186,0.8186,0.8186]},{"header":{"parameterUnit":"m.s-1","parameterCategory":1,"la1":30.2991,"la2":30.254,"lo1":-89.0895,"lo2":-89.0444,"dy":0.0017,"dx":0.0017,"nx":28,"ny":28,"refTime":"2024-06-23T03:00:00:Z","depth":0,"parameterNumber":3,"parameterNumberName":"V-component_of_WINDS"},"data":[0,0,0,0,0,0,0,0,0,0,0,0,0,0,0,0,0,0,0,0,0,0,0,0,0,0,0,0,0,0,0,0,0,0,0,0,0,0,0,0,0,0,0,0,0,0,0,0,0,0,0,0,0,0,0,0,0,0,5.4414,5.4415,0,5.448,5.4481,5.4482,5.4427,5.4424,5.4422,5.442,5.4483,5.4487,5.4491,0,0,0,0,0,0,0,0,0,0,0,0,0,5.4235,5.4239,5.4414,5.4415,5.4416,5.448,5.4481,5.4482,5.4427,5.4424,5.4422,5.4419,5.4482,5.4487,5.4491,0,0,0,0,0,0,0,0,0,0,0,0,0,5.4308,5.424,5.4414,5.4396,5.4395,5.448,5.4481,5.4482,5.4428,5.4424,5.4421,5.4418,5.4481,5.4486,5.4492,5.4596,0,0,5.4509,5.4512,0,0,0,0,0,0,0,0,5.4304,5.4315,5.4398,5.4398,5.4397,5.4442,5.4441,5.452,5.4429,5.4415,5.442,5.4416,5.4472,5.4478,5.4498,5.4599,5.4602,5.451,5.4513,5.4516,5.4517,0,0,0,0,0,0,0,5.4299,5.4312,5.444,5.4399,5.4399,5.4383,5.439,5.4456,5.4462,5.4416,5.4412,5.4421,5.4471,5.4493,5.4499,5.4603,5.451,5.4515,5.4518,5.452,5.479,5.4794,0,0,0,0,0,0,5.4297,5.4308,5.4438,5.4442,5.4341,5.4389,5.4397,5.4431,5.4461,5.4463,5.4424,5.4418,5.4485,5.4492,5.4501,5.4624,5.4516,5.4521,5.4524,5.4787,5.4791,5.4795,0,0,0,0,0,0,5.4293,5.4309,5.4435,5.4374,5.4389,5.4396,5.4435,5.4434,5.4456,5.4467,5.4467,5.4446,5.4482,5.4493,5.4573,5.4626,5.4524,5.4529,5.4782,5.4788,5.4793,5.4872,0,0,0,0,0,0,5.4288,5.4308,5.4349,5.4375,5.4393,5.4508,5.4438,5.4438,5.4466,5.4459,5.4487,5.4489,5.448,5.4564,5.4578,5.4632,5.4533,5.4778,5.4785,5.4792,5.4864,5.4879,5.4892,0,0,0,0,0,5.4282,5.4367,5.4351,5.4367,5.4444,5.4511,5.4521,5.4511,5.4471,5.4511,5.4518,5.4488,5.4618,5.4573,5.4588,5.4644,5.4774,5.4783,5.4791,5.4858,5.4876,5.4892,0,0,0,0,0,0,5.4345,5.4371,5.4353,5.445,5.4479,5.4502,5.4552,5.453,5.457,5.4562,5.4546,5.4553,5.4637,5.4648,5.4598,5.4746,5.4689,5.4701,5.4735,5.4752,5.4766,5.4761,5.4538,0,0,0,0,0,5.4371,5.4425,5.4443,5.4527,5.4543,5.4545,5.4574,5.4564,5.4592,5.4604,5.4617,5.4645,5.4691,5.4723,5.4766,5.4866,5.487,5.4911,5.4925,5.4937,5.4947,5.4999,5.5017,5.4823,5.4823,5.4823,0,0,5.4424,5.4444,5.4479,5.454,5.4562,5.4616,5.4556,5.4616,5.4655,5.4612,5.4689,5.4699,5.4729,5.4819,5.4859,5.4831,5.5001,5.4947,5.4956,5.496,5.5009,5.5028,5.5044,5.4829,5.4828,5.4827,0,0,5.4548,5.457,5.4641,5.4664,5.4697,5.4698,5.4716,5.4742,5.4747,5.4824,5.4793,5.4838,5.492,5.4942,5.4964,5.5096,5.5069,5.511,5.5182,5.5233,5.5248,5.5262,5.5308,5.5325,5.5121,5.5121,5.5121,0,5.4609,5.4691,5.468,5.4743,5.477,5.4735,5.4807,5.4829,5.4874,5.4893,5.4861,5.4962,5.498,5.5074,5.5106,5.5125,5.5143,5.5107,5.5247,5.5261,5.5273,5.5317,5.5334,5.5126,5.5125,5.5125,5.5124,0,5.4764,5.4821,5.4875,5.4921,5.4954,5.5021,5.5019,5.5053,5.504,5.5044,5.5121,5.5141,5.5188,5.521,5.5197,5.5302,5.5283,5.525,5.5193,5.5297,5.5337,5.5354,5.5133,5.5131,5.5129,5.5128,0,0,5.493,5.4969,5.4989,5.5009,5.5043,5.5086,5.5151,5.5198,5.5227,5.5259,5.5312,5.5381,5.5351,5.5376,5.5365,5.541,5.5511,5.5371,5.5371,5.5395,5.5626,5.5651,5.567,5.5494,5.5497,5.55,5.5624,0,5.5055,5.5169,5.516,5.5267,5.5319,5.5286,5.5341,5.5367,5.5372,5.5416,5.542,5.547,5.5426,5.5441,5.5484,5.549,5.5557,5.5481,5.5541,5.5543,5.5534,5.5692,5.5718,5.5834,5.5639,5.5642,5.5644,0,5.5216,5.5255,5.5367,5.5392,5.5414,5.5464,5.5506,5.5549,5.5576,5.5577,5.5605,5.5586,5.5649,5.5591,5.5677,5.5625,5.5649,5.5656,5.566,5.5664,5.56,5.57,5.5871,5.5888,5.5669,5.5667,5.5665,0,5.5324,5.5405,5.5482,5.55,5.5532,5.5568,5.5583,5.5607,5.5636,5.5672,5.569,5.5732,5.5756,5.5788,5.5781,5.574,5.5868,5.581,5.5868,5.5869,5.5896,5.5895,5.6073,5.5913,5.5913,5.5913,5.5912,0,5.5464,5.5534,5.5531,5.5579,5.5655,5.5644,5.5719,5.5729,5.5752,5.5799,5.5772,5.5817,5.5805,5.5849,5.5844,5.5915,5.5925,5.5926,5.5924,5.5928,5.5928,5.5943,5.5935,5.5917,5.5916,5.5915,5.5915,0,5.5598,5.56,5.5681,5.5705,5.5712,5.5768,5.5787,5.583,5.5833,5.5894,5.5907,5.5911,5.5961,5.5957,5.6013,5.6009,5.6097,5.6085,5.6088,5.6085,5.6144,5.6138,5.6338,5.6363,5.6188,5.6189,5.6191,0,5.5687,5.574,5.5769,5.58,5.5817,5.5867,5.5896,5.5887,5.5918,5.5953,5.5993,5.604,5.6078,5.616,5.6166,5.6209,5.6197,5.6264,5.6203,5.6206,5.6197,5.6194,5.6199,5.6276,5.6278,5.628,5.6281,0,5.5844,5.5842,5.5886,5.5931,5.5967,5.6001,5.6031,5.6057,5.6051,5.6087,5.6139,5.6168,5.6226,5.6273,5.6313,5.6326,5.6302,5.63,5.6316,5.6321,5.632,5.632,5.612,5.6295,5.6294,5.6293,5.6292,5.6292,5.5958,5.6003,5.6031,5.608,5.6103,5.6132,5.6174,5.6183,5.6226,5.6273,5.6265,5.6322,5.6347,5.6399,5.6416,5.646,5.6435,5.6458,5.6464,5.647,5.6476,5.6314,5.6467,5.6466,5.6466,5.6466,5.6465,0,5.6113,5.6129,5.6175,5.622,5.6258,5.6234,5.6266,5.63,5.6351,5.6377,5.6415,5.6474,5.652,5.653,5.6573,5.6606,5.6596,5.6618,5.6615,5.6618,5.6496,5.6478,5.6625,5.6625,5.6625,5.6625,5.6625,5.6625,5.6198,5.6273,5.6274,5.6359,5.6374,5.6432,5.6452,5.6478,5.6499,5.6566,5.6605,5.6612,5.6631,5.6675,5.6716,5.6717,5.6734,5.676,5.6757,5.6643,5.6627,5.6611,5.6594,5.6764,5.6764,5.6876,5.6877,5.6877]}]]